Hourly Data Report for October 01, 2016

All times are specified in Local Standard Time (LST). Add 1 hour to adjust for Daylight Saving Time where and when it is observed.

GRISE FIORD CLIMATE
NUNAVUT

76°25'22.040" N
82°54'08.020" W
44.50 m
2402351
71971
NGC

Download Data

Hourly Data (October 2016)
Hourly Data Report for October 1, 2016
Temp Definition
°C
Dew Point Temp Definition
°C
Rel Hum Definition
%
Wind Dir Definition
10's deg

Wind Spd Definition
km/h
Visibility Definition
km
Stn Press Definition
kPa
Hmdx Definition


Wind Chill Definition


Weather Definition


TIME
00:00 -2.7 -10.9 53 3 47   101.19   -12 LegendNANA
01:00 -2.6 -12.5 46 33 15   101.25   -8 LegendNANA
02:00 -2.9 -13.2 45 32 17   101.27   -8 LegendNANA
03:00 -2.8 -12.8 46 3 37   101.20   -11 LegendNANA
04:00 -2.2 -14.9 37 35 24   101.27   -9 LegendNANA
05:00 -3.2 -14.2 42 31 17   101.28   -9 LegendNANA
06:00 -3.5 -14.1 44 33 11   101.32   -8 LegendNANA
07:00 -3.8 -13.6 46 3 21   101.26   -10 LegendNANA
08:00 -4.1 -12.8 51 32 8   101.27   -8 LegendNANA
09:00 -2.6 -10.9 53 33 17   101.12   -8 LegendNANA
10:00 -2.8 -10.9 54 1 21   101.17   -9 LegendNANA
11:00 -2.8 -11.1 53 34 15   101.14   -8 LegendNANA
12:00 -2.7 -11.2 52 23 8   101.13   -6 LegendNANA
13:00 -2.7 -11.0 53 27 21   101.08   -9 LegendNANA
14:00 -2.9 -8.7 64 28 21   101.04   -9 LegendNANA
15:00 -0.8 -8.3 57 32 14   100.95   -5 LegendNANA
16:00 -1.8 -8.5 61 13 15   100.91   -7 LegendNANA
17:00 -2.5 -7.7 68 17 15   100.88   -7 LegendNANA
18:00 -2.7 -7.5 69 17 5   100.87   -5 LegendNANA
19:00 -3.4 -7.4 74 26 17   100.85   -9 LegendNANA
20:00 -3.7 -8.7 68 36 10   100.80   -8 LegendNANA
21:00 -3.5 -8.4 69 31 6   100.73   -6 LegendNANA
22:00 -4.0 -8.5 71 36 1   100.65   -4 LegendNANA
23:00 -2.9 -6.9 74 27 13   100.58   -8 LegendNANA

Notes on Data Quality.

Legend

  • E = Estimated
  • M = Missing
  • NA = Not Available
  • ‡ = Partner data that is not subject to review by the National Climate Archives
Date modified: